This is the latest recevied weather packets stored in our database for station/object K3HW. If no packets are shown the sender has not sent any weather packets the latest 10 day(s).
| Time | Temp. | Humidity | Pressure | Rain* | Wind** | Luminosity | Snow |
|---|---|---|---|---|---|---|---|
| 1777933274 | 22.22° C | 37% | 1013.1 hPa | 0 mm | - | 52 W/m² | - |
| 1777932971 | 22.78° C | 37% | 1013.1 hPa | 0 mm | - | 95 W/m² | - |
| 1777932668 | 22.78° C | 38% | 1013.2 hPa | 0 mm | - | 50 W/m² | - |
| 1777932364 | 22.22° C | 38% | 1013.2 hPa | 0 mm | - | 83 W/m² | - |
| 1777928422 | 22.78° C | 37% | 1013.4 hPa | 0 mm | - | 220 W/m² | - |
| 1777925396 | 22.22° C | 38% | 1013.5 hPa | 0 mm | - | 109 W/m² | - |
| 1777924485 | 22.22° C | 39% | 1013.7 hPa | 0 mm | - | 51 W/m² | - |
| 1777923574 | 22.22° C | 37% | 1013.6 hPa | 0 mm | - | 283 W/m² | - |
| 1777922970 | 22.22° C | 38% | 1013.9 hPa | 0 mm | - | 58 W/m² | - |
| 1777922667 | 22.22° C | 39% | 1013.9 hPa | 0 mm | - | 47 W/m² | - |
| 1777922366 | 21.67° C | 38% | 1014.1 hPa | 0 mm | - | 50 W/m² | - |
| 1777919936 | 21.67° C | 37% | 1014.5 hPa | 0 mm | - | 188 W/m² | - |
| 1777919634 | 21.67° C | 38% | 1014.5 hPa | 0 mm | - | 177 W/m² | - |
| 1777919331 | 21.67° C | 38% | 1014.8 hPa | 0 mm | - | 95 W/m² | - |
| 1777919028 | 22.22° C | 37% | 1014.6 hPa | 0 mm | - | 66 W/m² | - |
| 1777918725 | 22.22° C | 39% | 1014.7 hPa | 0 mm | - | 163 W/m² | - |
| 1777918423 | 21.67° C | 38% | 1014.8 hPa | 0 mm | - | 92 W/m² | - |
| 1777918121 | 21.11° C | 37% | 1014.7 hPa | 0 mm | - | 357 W/m² | - |
| 1777917819 | 21.11° C | 37% | 1015 hPa | 0 mm | - | 67 W/m² | - |
| 1777917517 | 21.11° C | 39% | 1015 hPa | 0 mm | - | 57 W/m² | - |
| 1777916306 | 21.11° C | 38% | 1015.4 hPa | 0 mm | - | 85 W/m² | - |
| 1777916003 | 21.11° C | 37% | 1015.1 hPa | 0 mm | - | 82 W/m² | - |
| 1777915700 | 20.56° C | 41% | 1015.3 hPa | 0 mm | - | 196 W/m² | - |
| 1777915396 | 20.56° C | 38% | 1015.4 hPa | 0 mm | - | 131 W/m² | - |
| 1777915092 | 21.11° C | 39% | 1015.3 hPa | 0 mm | - | 695 W/m² | - |
* Rain latest hour (hover to see other rain measurements)
** Current wind speed in m/s (hover to see current wind gust speed)